This demonstration page uses our WeatherBlox Daily Observations layout. Learn more.

Left ArrowRight Arrow

Hourly Observations for August 20, 2018

Temp ( °F °C ) Dew Point ( °F °C ) Humidity (%) Winds ( mph kmh ) Pressure ( in mb ) Visibility ( mi km ) Precip ( " mm )
12:05 am 00:05 Mostly Cloudy 72 22.2 70 21.1 94 94 SSW 9 15 29.77 1008 10 16 0.00 0.00
12:12 am 00:12 Mostly Clear 73 22.8 69 20.6 87 87 WSW 13 20 29.77 1008 10 16 0.00 0.00
12:52 am 00:52 Mostly Clear 71 21.7 67 19.4 87 87 WSW 12 19 29.78 1009 10 16 0.00 0.00
1:52 am 01:52 Clear 68 20 65 18.3 90 90 S 8 13 29.78 1008 10 16 0.00 0.00
2:52 am 02:52 Clear 68 20 64 17.8 87 87 S 8 13 29.79 1009 10 16 0.00 0.00
3:52 am 03:52 Clear 67 19.4 64 17.8 91 91 SSW 7 11 29.80 1009 10 16 0.00 0.00
4:24 am 04:24 Mostly Cloudy 66 18.9 64 17.8 93 93 SSW 7 11 29.80 1009 10 16 0.00 0.00
4:32 am 04:32 Partly Cloudy 66 18.9 63 17.2 90 90 S 7 11 29.80 1009 10 16 0.00 0.00
4:43 am 04:43 Mostly Cloudy 67 19.4 64 17.8 91 91 S 7 11 29.80 1009 10 16 0.00 0.00
4:52 am 04:52 Mostly Cloudy 67 19.4 64 17.8 91 91 S 8 13 29.81 1010 10 16 0.00 0.00
5:27 am 05:27 Partly Cloudy 66 18.9 64 17.8 93 93 SSW 5 7 29.80 1009 10 16 0.00 0.00
5:52 am 05:52 Clear 66 18.9 64 17.8 93 93 SSW 7 11 29.81 1009 10 16 0.00 0.00
6:52 am 06:52 Sunny 66 18.9 64 17.8 93 93 SW 6 9 29.82 1010 10 16 0.00 0.00
7:52 am 07:52 Mostly Cloudy 68 20 65 18.3 90 90 SW 6 9 29.83 1010 10 16 0.00 0.00
8:52 am 08:52 Cloudy 69 20.6 65 18.3 87 87 SW 6 9 29.83 1010 10 16 0.00 0.00
9:52 am 09:52 Cloudy with Light Rain 70 21.1 65 18.3 84 84 WSW 9 15 29.84 1010 10 16 0.01 0.25
10:30 am 10:30 Mostly Cloudy 71 21.7 66 18.9 84 84 SW 6 9 29.83 1010 10 16 0.00 0.03
10:52 am 10:52 Mostly Cloudy 72 22.2 66 18.9 82 82 SW 9 15 29.84 1011 10 16 0.00 0.03
11:23 am 11:23 Partly Cloudy 74 23.3 66 18.9 76 76 SSW 10 17 29.83 1010 10 16 0.00 0.00
11:52 am 11:52 Mostly Cloudy 74 23.3 65 18.3 74 74 SW 13 20 29.84 1011 10 16 0.00 0.00
12:40 pm 12:40 Cloudy 76 24.4 65 18.3 69 69 SW 12 19 29.83 1010 10 16 0.00 0.00
12:52 pm 12:52 Cloudy 76 24.4 64 17.8 67 67 WSW 16 26 29.83 1010 10 16 0.00 0.00
1:52 pm 13:52 Mostly Cloudy 79 26.1 64 17.8 60 60 W 18 30 29.82 1010 10 16 0.00 0.00
2:52 pm 14:52 Partly Cloudy 79 26.1 65 18.3 62 62 WSW 13 20 29.81 1009 10 16 0.00 0.00
3:52 pm 15:52 Mostly Cloudy with Light Rain 73 22.8 66 18.9 79 79 W 10 17 29.81 1010 5 8 0.01 0.25
4:52 pm 16:52 Cloudy with Light Rain 70 21.1 66 18.9 87 87 NW 13 20 29.82 1010 3 5 0.01 0.25
5:18 pm 17:18 Mostly Cloudy 74 23.3 68 20 82 82 WSW 10 17 29.80 1009 10 16 0.01 0.25
5:52 pm 17:52 Mostly Sunny 74 23.3 66 18.9 76 76 WSW 15 24 29.82 1010 10 16 0.01 0.25
6:22 pm 18:22 Cloudy with Light Rain 74 23.3 66 18.9 76 76 WSW 12 19 29.80 1009 10 16 0.00 0.03
6:52 pm 18:52 Mostly Cloudy 75 23.9 66 18.9 74 74 W 16 26 29.82 1010 10 16 0.00 0.03
8:52 pm 20:52 Cloudy with Light Rain 73 22.8 63 17.2 71 71 W 14 22 29.85 1011 10 16 0.00 0.03
9:52 pm 21:52 Cloudy with Light Rain 69 20.6 65 18.3 87 87 WNW 9 15 29.88 1012 5 8 0.01 0.25
10:06 pm 22:06 Cloudy with Light Rain 68 20 65 18.3 90 90 W 10 17 29.88 1012 6 10 0.01 0.25
10:52 pm 22:52 Cloudy 69 20.6 64 17.8 84 84 W 9 15 29.88 1012 9 14 0.01 0.25
11:52 pm 23:52 Cloudy 69 20.6 64 17.8 84 84 W 9 15 29.88 1012 10 16 0.00 0.00

Powered by AerisWeather